OBJECT CY, 66760

Orbit data source: Space-Track

You're viewing an uncataloged RSO

Recently launched and/or uncataloged RSOs may have evolving metadata. Metadata may include the following, but is not limited to: Owner, Manufacturer, Bus, Motor, and Mission.

OBJECT CY, 66760 is a satellite in SSO that was launched on Fri, 28 Nov 2025 UTC via an FALCON 9 launch vehicle from the Air Force Western Test Range (AFWTR). Unknown objects in Earth's orbit typically refer to objects detected orbiting the Earth but have not yet been identified or cataloged. These objects could be anything from previously untracked satellites, spent rocket stages, debris from satellite collisions, or even natural meteoroids temporarily captured by Earth's gravity.

Loading next visibility...
Identifier
66760, 2025-276CY
Orbit
SSO
Country
Flag of TBDTBD
Related business
None
Manufacturer
Unknown
Mission
Operational Commercial Imaging
Bus & Motor
Unknown
Mass
Unknown
Launch date (UTC)
2025-11-28 (9 months ago)
Launch vehicle
FALCON 9
Launch site
Air Force Western Test Range (AFWTR)
Object type
Unknown
Shape & HBR
Box, 0.2 m
Radar Cross Section
0.080 m², Medium (>0.1 m² and < 1m²)

Expand to show TLE details & history
Last TLE update: 17 hours ago

TLE from 17 hours ago
0 OBJECT CY
1 66760U 25276CY  26238.20834809  .00004332  00000-0  19954-3 0  9995
2 66760  97.4146 310.7883 0002193  80.8739 279.2744 15.20817663 41074
Epoch: 2026-08-26T05:00Z
TLE epoch observation values (Epoch: 2026-08-26T05:00:01.274Z)
Latitude
-0.00011°
Longitude
-98.68164°
Altitude
506.221 km
Speed
7.611 km/s
True Right ascension
20h 43m 09s
True Declination
0° 00' 00"
Sunlit
Object was in full shadow at epoch
Visualization orbit readout
Latitude
Unknown
Longitude
Unknown
Altitude
Unknown
Speed
Unknown
Apparent Right ascension
Unknown
Apparent Declination
Unknown
Sunlit
N/A
Visualization observer readout
Local Sidereal Time
13:30:24
Azimuth
Unknown
Elevation
Unknown
Doppler factor
Unknown
Orbital elements
Apogee altitude
501.847 km
Perigee altitude
498.83 km
Semi-major axis
6,878.475 km
Eccentricity
0.00022
Inclination
97.4146°
RAAN
310.7883°
Arg. of periapsis
80.8739°
True anomaly
279.2496°
Mean anomaly
279.2744°
Eccentric anomaly
279.262°
Mean motion
3.80456 °/min
Orbital period
94.62 mins
BSTAR
0.00019954
Loading maneuver chart data...
Computing Atmospheric mass density...
Loading historical data...
Loading historical data...
Loading historical data...
Loading historical data...
Loading historical data...
Loading historical data...
Loading historical data...

Documentation

Showing up to 5 results
|